This demonstration page uses our WeatherBlox Daily Observations layout. Learn more.

Left ArrowRight Arrow

Hourly Observations for March 11, 2021

Temp ( °F °C ) Dew Point ( °F °C ) Humidity (%) Winds ( mph kmh ) Pressure ( in mb ) Visibility ( mi km ) Precip ( " mm )
12:51 am 00:51 Clear 41 5 15 -9.4 35 35 E 5 7 29.94 1014 10 16 N/A
1:51 am 01:51 Clear 43 6.1 16 -8.9 34 34 E 9 15 30.04 1017 10 16 N/A
2:51 am 02:51 Clear 40 4.4 15 -9.4 36 36 VRB 3 6 29.93 1014 10 16 N/A
3:51 am 03:51 Clear 38 3.3 15 -9.4 39 39 N N/A 30.05 1017 10 16 N/A
4:51 am 04:51 Clear 37 2.8 15 -9.4 41 41 S 3 6 29.94 1014 10 16 N/A
5:51 am 05:51 Clear 41 5 16 -8.9 36 36 NNW 6 9 29.95 1014 10 16 N/A
6:51 am 06:51 Sunny 37 2.8 15 -9.4 41 41 SE 3 6 29.98 1015 10 16 N/A
7:51 am 07:51 Sunny 44 6.7 17 -8.3 34 34 N N/A 29.98 1015 10 16 N/A
8:51 am 08:51 Sunny 53 11.7 18 -7.8 25 25 E 7 11 29.97 1015 10 16 N/A
9:51 am 09:51 Sunny 56 13.3 19 -7.2 24 24 N N/A 29.97 1015 10 16 N/A
10:51 am 10:51 Sunny 60 15.6 17 -8.3 19 19 SSE 5 7 29.96 1014 10 16 N/A
11:51 am 11:51 Sunny 64 17.8 12 -11.1 13 13 SSW 9 15 29.93 1013 10 16 N/A
12:51 pm 12:51 Sunny 69 20.6 5 -15 8 8 S 16 26 29.89 1012 10 16 N/A
1:51 pm 13:51 Sunny 70 21.1 6 -14.4 8 8 S 13 20 29.86 1011 10 16 N/A
2:51 pm 14:51 Sunny 72 22.2 4 -15.6 7 7 VRB 5 7 29.82 1010 10 16 N/A
3:51 pm 15:51 Sunny 72 22.2 N/A 6 6 SSW 12 19 29.80 1009 10 16 N/A
4:51 pm 16:51 Sunny 70 21.1 8 -13.3 9 9 WNW 14 22 29.81 1009 10 16 N/A
5:51 pm 17:51 Sunny 65 18.3 16 -8.9 15 15 NW 18 30 29.83 1010 10 16 N/A
6:51 pm 18:51 Clear 61 16.1 19 -7.2 20 20 NW 16 26 29.87 1011 10 16 N/A
7:51 pm 19:51 Clear 59 15 20 -6.7 22 22 NW 13 20 29.87 1012 10 16 N/A
8:51 pm 20:51 Clear 57 13.9 21 -6.1 25 25 WNW 8 13 29.88 1012 10 16 N/A
9:51 pm 21:51 Clear 55 12.8 22 -5.6 28 28 WNW 8 13 29.89 1012 10 16 N/A
10:51 pm 22:51 Clear 56 13.3 23 -5 28 28 NW 13 20 29.88 1012 10 16 N/A
11:51 pm 23:51 Clear 54 12.2 24 -4.4 31 31 NNW 9 15 29.88 1012 10 16 N/A

Powered by AerisWeather